Weather History for Asheville, NC

Change the Weather History Date:

Saturday, March 2, 2013

  Actual Average Record
Temperature  
Mean Temperature 35 °F 44 °F  
Max Temperature 42 °F 55 °F 79 °F (1976)
Min Temperature 27 °F 33 °F 8 °F (1914)
Degree Days  
Heating Degree Days 30 21  
Month to date heating degree days 60 43  
Since 1 July heating degree days 3001 3260  
Cooling Degree Days 0 0  
Month to date cooling degree days 0 0  
Year to date cooling degree days 0 0  
Moisture  
Dew Point 24 °F    
Average Humidity 65    
Maximum Humidity 85    
Minimum Humidity 45    
Precipitation  
Precipitation 0.01 in 0.13 in 1.69 in (1960)
Month to date precipitation 0.01 0.25  
Year to date precipitation 12.15 7.68  
Snow  
Snow T in 0.00 in 15.00 in (1872)
Month to date snowfall T 0.1  
Since 1 July snowfall 0.2 7.4  
Snow Depth 0.00 in    
Sea Level Pressure  
Sea Level Pressure 29.88 in    
Wind  
Wind Speed 12 mph (North)    
Max Wind Speed 23 mph    
Max Gust Speed 33 mph    
Visibility 9 miles    
Events Snow    
T = Trace of Precipitation, MM = Missing Value Source: NWS Daily Summary

Daily Weather History Graph

Daily Weather History Graph

Search for Another Location

Airport:

Trip Planner

Search our weather history database for the weather conditions in past years. The results will help you decide how hot, cold, wet, or windy it might be!

Date:

Astronomy

Mar. 02, 2013 Rise Set
Actual Time 6:58 AM EST 6:26 PM EST
Civil Twilight 6:32 AM EST 6:52 PM EST
Nautical Twilight 6:03 AM EST 7:21 PM EST
Astronomical Twilight 5:33 AM EST 7:51 PM EST
Moon 11:51 PM EST (3/2) 9:37 AM EST (3/2)
Length of Visible Light 12h 19m
Length of Day
11h 28m
Waning Gibbous, 74% of the Moon is Illuminated
Mar 2
Waning Gibbous
Mar 4
Last Quarter
Mar 11
New
Mar 19
First Quarter
Mar 27
Full

Hourly Weather History & Observations

Time (EST) Temp. Windchill Dew Point Humidity Pressure Visibility Wind Dir Wind Speed Gust Speed Precip Events Conditions
12:54 AM 33.1 °F 25.5 °F 28.0 °F 82% 29.89 in 10.0 mi North 9.2 mph - 0.00 in Snow Light Snow
1:54 AM 33.1 °F 24.9 °F 28.0 °F 82% 29.88 in 9.0 mi NNW 10.4 mph - 0.00 in Snow Light Snow
2:54 AM 33.1 °F 26.9 °F 28.0 °F 82% 29.88 in 7.0 mi North 6.9 mph - 0.00 in Snow Light Snow
3:54 AM 32.0 °F 25.6 °F 28.9 °F 88% 29.86 in 4.0 mi NNW 6.9 mph - 0.01 in Snow Light Snow
4:18 AM 32.0 °F 25.6 °F 28.4 °F 87% 29.84 in 5.0 mi NNW 6.9 mph - 0.00 in Snow Light Snow
4:54 AM 32.0 °F 27.5 °F 28.9 °F 88% 29.86 in 9.0 mi North 4.6 mph - 0.00 in Snow Light Snow
5:27 AM 32.0 °F 26.4 °F 28.4 °F 87% 29.84 in 2.5 mi North 5.8 mph - 0.00 in Snow Light Snow
5:38 AM 32.0 °F 25.6 °F 28.4 °F 87% 29.84 in 5.0 mi North 6.9 mph - 0.00 in Snow Light Snow
5:54 AM 32.0 °F 25.6 °F 28.0 °F 85% 29.86 in 8.0 mi North 6.9 mph - 0.00 in Snow Light Snow
6:54 AM 30.9 °F 24.3 °F 27.0 °F 85% 29.87 in 10.0 mi North 6.9 mph - 0.00 in   Overcast
7:54 AM 30.9 °F 23.5 °F 26.1 °F 82% 29.88 in 10.0 mi North 8.1 mph - N/A   Overcast
8:54 AM 32.0 °F 24.2 °F 26.1 °F 79% 29.89 in 10.0 mi North 9.2 mph - N/A   Overcast
9:54 AM 34.0 °F 25.5 °F 26.1 °F 73% 29.88 in 10.0 mi North 11.5 mph 19.6 mph N/A   Mostly Cloudy
10:18 AM 37.4 °F 29.8 °F 24.8 °F 60% 29.85 in 10.0 mi North 11.5 mph 21.9 mph N/A   Mostly Cloudy
10:54 AM 36.0 °F 27.1 °F 21.9 °F 57% 29.88 in 10.0 mi North 13.8 mph 23.0 mph N/A   Mostly Cloudy
11:54 AM 37.0 °F 28.1 °F 23.0 °F 57% 29.88 in 10.0 mi NNW 15.0 mph 20.7 mph N/A   Overcast
12:54 PM 37.9 °F 29.2 °F 21.0 °F 51% 29.86 in 10.0 mi NNW 15.0 mph 21.9 mph N/A   Overcast
1:54 PM 41.0 °F 34.3 °F 21.0 °F 45% 29.84 in 10.0 mi North 11.5 mph 20.7 mph N/A   Mostly Cloudy
2:54 PM 37.9 °F 29.6 °F 23.0 °F 55% 29.84 in 10.0 mi NNE 13.8 mph 20.7 mph N/A   Overcast
3:54 PM 36.0 °F 26.7 °F 24.1 °F 62% 29.86 in 10.0 mi North 15.0 mph 25.3 mph N/A   Overcast
4:54 PM 34.0 °F 23.4 °F 23.0 °F 64% 29.88 in 10.0 mi North 17.3 mph 27.6 mph N/A   Overcast
5:54 PM 33.1 °F 23.4 °F 23.0 °F 66% 29.89 in 10.0 mi NNW 13.8 mph - N/A   Overcast
6:54 PM 30.9 °F 19.1 °F 23.0 °F 72% 29.91 in 10.0 mi NNW 18.4 mph 27.6 mph 0.00 in   Overcast
7:54 PM 30.0 °F 18.3 °F 21.9 °F 72% 29.92 in 10.0 mi NNW 17.3 mph 23.0 mph 0.00 in   Overcast
8:54 PM 28.9 °F 17.3 °F 19.9 °F 69% 29.94 in 10.0 mi North 16.1 mph 23.0 mph 0.00 in Snow Light Snow
9:18 PM 28.4 °F 15.4 °F 19.4 °F 69% 29.91 in 9.0 mi NNW 19.6 mph 27.6 mph 0.00 in Snow Light Snow
9:54 PM 28.0 °F 17.5 °F 19.0 °F 69% 29.94 in 9.0 mi NNW 12.7 mph 28.8 mph 0.00 in Snow Light Snow
10:04 PM 28.4 °F 17.0 °F 19.4 °F 69% 29.91 in 9.0 mi NNW 15.0 mph 25.3 mph 0.00 in Snow Light Snow
10:54 PM 28.0 °F 15.7 °F 19.0 °F 69% 29.94 in 9.0 mi NNW 17.3 mph 24.2 mph 0.00 in   Overcast
11:54 PM 27.0 °F 13.5 °F 19.0 °F 72% 29.94 in 10.0 mi NNW 19.6 mph 28.8 mph N/A   Overcast